Location: Sayre
(37.6881°N, 100.1743°W)
Time: 03:19:09
(UTC+00:00)

Daily predictions for brighter satellites

Satellite Brightness Start Highest point End
(mag) Time Altitude Azimuth Time Altitude Azimuth Time Altitude Azimuth
Cosmos 1825 Rocket 3.9 00:11:23 10° N 00:15:40 45° E 00:19:53 10° SSE
YAOGAN 1 4.3 00:13:46 10° E 00:15:51 13° ENE 00:17:57 10° NE
SL-4 R/B 4.3 00:19:58 10° NNW 00:20:18 10° N 00:20:37 10° N
Hubble Space Telescope 3.4 00:23:15 10° SW 00:25:09 13° SSW 00:27:03 10° S
CZ-2C R/B 4.4 00:20:54 10° ESE 00:25:18 23° ENE 00:29:38 10° NNE
Delta 2 Rocket 4.2 00:20:39 10° W 00:25:48 72° S 00:31:25 10° E
Cosmos 1110 Rocket 4.2 00:20:47 10° SSW 00:26:03 81° WNW 00:31:19 10° NNE
Cosmos 1726 Rocket 3.6 00:23:03 10° S 00:27:16 57° E 00:31:34 10° NNE
Atlas Centaur 2 4.1 00:20:41 10° SW 00:27:57 34° SSE 00:35:15 10° E
CZ-4B R/B 3.9 00:22:36 10° S 00:28:10 64° WSW 00:33:41 10° NNW
CZ-2D R/B 4.3 00:25:16 10° SE 00:28:24 25° ENE 00:31:33 10° NNE
Cosmos 1302 Rocket 4.3 00:23:44 10° S 00:28:43 46° ESE 00:33:45 10° NNE
Cosmos 1300 2.6 00:27:50 10° S 00:31:36 65° E 00:35:23 10° NNE
Cosmos 1703 4.3 00:27:56 10° NNW 00:31:47 51° W 00:35:36 10° S
Cosmos 1758 Rocket 3.7 00:29:12 10° N 00:33:36 81° W 00:37:56 10° S
Okean-O 3.4 00:33:01 10° SE 00:36:50 29° ENE 00:40:38 10° N
Cosmos 2228 3.3 00:36:45 10° SSW 00:40:57 68° W 00:45:12 10° N
Cosmos 1606 Rocket 3.8 00:37:52 10° SSW 00:42:11 72° W 00:46:34 10° N
Cosmos 1656 3.9 00:39:41 10° S 00:44:57 48° ESE 00:50:20 10° NNE
FALCON 9 DEB 4.0 00:42:24 10° WSW 00:45:30 43° NW 00:48:22 11° NE
CZ-4B R/B 3.2 00:42:45 10° N 00:45:40 32° WNW 00:48:29 10° SW
Cosmos 2227 Rocket 3.1 00:43:08 10° N 00:47:50 26° ENE 00:51:12 16° ESE
MOS 1 Rocket 4.3 00:45:10 10° NE 00:49:11 27° E 00:53:21 10° SSE
Cosmos 1553 Rocket 4.2 00:44:21 10° SSE 00:50:28 51° E 00:56:33 10° NNE
Meteor 2-8 Rocket 4.4 00:44:57 10° S 00:50:55 62° E 00:56:58 10° NNE
Cosmos 44 3.8 00:47:19 10° SW 00:51:39 55° WNW 00:56:16 10° NNE
FALCON 9 DEB 4.3 00:48:42 10° WSW 00:51:40 34° NW 00:54:17 12° NNE
SKYMED 2 3.6 00:47:32 10° NNE 00:51:54 88° W 00:56:14 10° SSW
Meteor 2-21 Rocket 4.5 00:47:09 10° N 00:53:20 89° W 00:59:27 10° S
CZ-4 R/B 4.4 00:51:53 10° SSE 00:55:59 61° ENE 01:00:05 10° N
OAO 3 Rocket 3.6 00:53:11 10° W 00:57:53 56° S 01:01:04 19° ESE
Cosmos 1697 Rocket 3.2 00:57:15 10° SSE 01:02:15 34° ESE 01:05:59 16° NE
Helios 1A Rocket 2.8 00:59:31 10° SSE 01:03:36 66° ENE 01:07:42 10° N
Cosmos 1340 2.8 01:00:16 10° N 01:03:58 50° E 01:07:37 10° SSE
Cosmos 1939 Rocket 3.0 01:00:56 10° S 01:04:56 77° WSW 01:08:53 10° NNW
H-2A R/B 2.7 01:03:48 10° SE 01:08:40 36° ENE 01:13:36 10° N
Cosmos 1992 Rocket 4.3 01:05:05 10° S 01:09:58 42° ESE 01:13:53 15° NE
ASTRO E2 4.2 01:07:04 10° SW 01:10:15 23° SSE 01:11:22 21° SE
IRS-P2 Rocket 4.5 01:05:29 10° SSE 01:10:40 73° ENE 01:15:55 10° N
Cosmos 2058 Rocket 3.4 01:07:15 10° SSW 01:11:42 71° W 01:16:12 10° N
Cosmos 220 Rocket 4.2 01:09:25 10° S 01:13:31 45° ESE 01:15:18 29° NE
Cosmos 1953 Rocket 4.3 01:11:18 10° NNW 01:15:37 55° W 01:19:57 10° S
Aureole 3 Rocket 3.3 01:12:13 10° SSW 01:15:41 63° W 01:20:18 10° N
SL-08 R/B 4.3 01:14:16 10° N 01:20:26 74° E 01:26:31 10° SSE
Cosmos 1745 Rocket 4.1 01:14:50 10° N 01:20:58 52° E 01:27:08 10° SSE
Cosmos 1455 3.0 01:17:33 10° SSE 01:19:52 32° SE 01:19:52 32° SE
Cosmos 1980 Rocket 3.4 01:19:31 10° SSE 01:22:19 22° SE 01:22:19 22° SE
CZ-4 R/B 1.2 01:21:29 10° S 01:25:25 84° WSW 01:29:18 10° NNW
Meteor 2-15 4.3 01:19:24 10° S 01:25:32 77° E 01:31:41 10° N
Cosmos 44 Rocket 4.3 01:22:45 10° S 01:25:34 26° SE 01:25:34 26° SE
Geosat 4.1 01:22:24 10° NNE 01:27:26 78° WNW 01:32:27 10° SSW
Cosmos 2058 3.5 01:23:56 10° N 01:26:52 38° NE 01:26:52 38° NE
Cosmos 2297 Rocket 2.1 01:22:37 10° NNW 01:28:17 68° ENE 01:32:04 21° SE
GPS 2-04 Rocket1 4.3 01:25:49 10° SSW 01:28:47 23° SSE 01:28:47 23° SSE
CSL-04 Debris 4.1 01:25:55 10° SSE 01:31:14 62° ENE 01:36:38 10° N
In-Cosmos 22 Rocket 4.1 01:26:04 10° N 01:31:27 84° W 01:36:56 10° S
Milstar 3 3.5 01:25:26 10° WSW 01:31:43 40° S 01:34:44 27° SE
Cosmos 1400 Rocket 4.4 01:28:19 10° SW 01:32:09 37° WNW 01:35:59 10° N
Cosmos 2360 4.3 01:28:40 10° S 01:34:11 51° ESE 01:35:33 42° ENE
Cosmos 1386 Rocket 4.4 01:31:52 10° N 01:38:15 69° E 01:44:32 10° SSE
OAO 2 Rocket 3.4 01:41:43 10° WSW 01:46:35 56° S 01:46:47 55° SSE
SeaSat 1 3.1 01:51:12 39° NNE 01:51:12 39° NNE 01:54:44 10° NNW
Cosmos 2278 4.4 01:44:34 10° S 01:48:20 37° SSE 01:48:20 37° SSE
Cosmos 1709 Rocket 4.2 01:44:48 10° N 01:50:36 50° ENE 01:50:36 50° ENE
YAOGAN 1 3.4 01:47:17 10° S 01:51:29 50° W 01:55:42 10° NNW
Cosmos 2219 3.5 01:50:07 10° NNW 01:55:50 66° WSW 01:59:59 19° S
Cosmos 1892 4.0 01:56:07 10° NNW 01:59:47 41° W 02:01:24 26° SW
Cosmos 2315 Rocket 4.3 01:54:46 10° S 02:04:30 26° NNE 02:07:02 10° NNE
Cosmos 1315 Rocket 3.8 01:57:16 10° SSW 02:00:17 43° WSW 02:00:17 43° WSW
Cosmos 883 Rocket 4.3 01:56:16 10° S 02:02:27 84° E 02:08:37 10° N
CZ-2C R/B 4.1 01:59:08 10° S 02:04:45 50° W 02:10:19 10° NNW
Cosmos 1346 Rocket 4.4 02:01:47 10° NNW 02:03:57 30° NNW 02:03:57 30° NNW
Cosmos 2082 4.1 02:00:09 10° NNW 02:04:35 50° NNE 02:04:35 50° NNE
Cosmos 968 Rocket 3.7 02:02:35 10° NNW 02:07:46 68° WSW 02:08:22 62° SSW
Cosmos 2369 3.9 02:07:14 10° SSW 02:12:55 68° WNW 02:14:26 48° N
Atlas Centaur 2 3.3 02:09:04 10° WSW 02:17:13 50° S 02:17:56 49° SSE
ARGOS 3.3 02:18:06 71° W 02:18:06 71° W 02:23:24 10° NNW
BREEZE-M TANK 4.4 02:20:27 10° WNW 02:23:04 27° NW 02:23:04 27° NW
USA 215 4.3 02:29:52 33° N 02:29:52 33° N 02:34:25 10° NNW
Cosmos 2227 Rocket 3.3 02:26:43 10° NW 02:32:00 41° WSW 02:33:07 37° SW
ATLAS 2AS CENTAUR R/B 4.2 02:37:51 10° NNW 02:41:40 26° N 02:41:40 26° N
Cosmos 1697 Rocket 4.3 02:41:18 10° WSW 02:46:11 30° WNW 02:47:49 26° NNW
H-2A R/B 4.0 02:43:42 10° SSW 02:48:05 27° W 02:52:38 10° NW
Cosmos 1980 Rocket 4.4 03:02:43 10° SW 03:04:12 18° WSW 03:04:12 18° WSW
Cosmos 2344 4.5 09:27:00 40° NE 09:27:00 40° NE 09:31:39 10° NE
ADEOS Rocket 4.4 09:55:08 10° SE 09:59:51 30° ENE 10:04:36 10° N
DELTA 2 R/B (1) 4.1 10:24:50 56° E 10:24:50 56° E 10:29:12 10° ESE
NOSS 3-2 (C) 4.0 10:31:38 45° N 10:31:38 45° N 10:36:15 10° NNE
Lacrosse 4 Rocket 3.8 10:33:26 17° NNE 10:33:26 17° NNE 10:34:23 10° NNE
ALOS 4.3 10:30:59 10° NE 10:34:57 27° E 10:38:53 10° SSE
Cosmos 1626 4.5 10:37:28 10° SE 10:40:26 23° E 10:43:24 10° NE
CENTAUR R/B 2.8 10:44:30 48° NNW 10:44:30 48° NNW 10:50:21 10° NNE
CZ-2C R/B 2.9 10:41:00 10° NNE 10:44:45 52° N 10:44:45 52° N
Cosmos 1833 Rocket 2.8 10:50:45 33° S 10:53:24 75° ESE 10:59:03 10° NNE
PAYLOAD A 4.4 10:48:54 10° N 10:52:49 50° NNW 10:52:49 50° NNW
ADEOS 4.4 10:49:07 10° NNE 10:54:12 50° E 10:59:15 10° S
Cosmos 1269 Rocket 4.4 10:57:37 49° NNW 10:57:37 49° NNW 11:01:52 10° N
Lacrosse 5 rocket 2.4 10:58:36 33° NNE 10:58:36 33° NNE 11:00:47 10° NE
CZ-3 R/B 3.8 10:42:22 28° WSW 10:57:55 55° S 11:06:28 10° ESE
Cosmos 1302 Rocket 4.3 10:53:37 13° NNW 10:58:23 67° ENE 11:03:37 10° SSE
Nadezhda 4 Rocket 4.2 10:52:22 10° S 10:58:24 69° E 11:04:30 10° NNE
H-2A R/B 3.8 10:56:14 10° S 10:57:55 22° S 10:57:55 22° S
Cosmos 2180 Rocket 4.3 10:54:43 10° N 11:01:00 85° W 11:07:10 10° S
Meteor 1-31 Rocket 4.3 11:01:33 10° NNE 11:05:15 37° E 11:08:54 10° SSE
CZ-4B R/B 2.6 11:08:04 10° SSE 11:11:22 44° ENE 11:14:41 10° N
Cosmos 2082 Rocket 2.7 11:07:06 10° S 11:12:35 59° ESE 11:18:06 10° NNE
SJ-6F 4.2 11:09:26 10° N 11:13:33 83° W 11:15:42 27° SSW
Meteor 1-16 Rocket 4.0 11:10:47 10° NNW 11:15:58 58° W 11:21:11 10° S
CZ-4B R/B 4.5 11:15:11 10° NNE 11:19:20 58° E 11:23:14 10° S
Cosmos 1656 3.6 11:17:43 15° NNW 11:22:27 69° WSW 11:28:04 10° S
deb Chang Zheng 4 3.6 11:18:33 10° NNE 11:22:48 79° E 11:27:04 10° S
Intercosmos 24 4.4 11:19:20 10° N 11:22:59 54° E 11:26:30 10° SSE
Meteor 2-5 Rocket 3.7 11:19:52 10° S 11:25:31 88° E 11:31:20 10° N
ATLAS 3B R/B 2.5 11:23:35 11° SW 11:29:58 80° WNW 11:36:37 10° NNE
Cosmos 1892 Rocket 4.4 11:25:56 10° S 11:30:08 52° E 11:34:22 10° NNE
Cosmos 2084 4.3 11:26:56 10° SSW 11:31:04 50° ESE 11:35:18 10° NE
COSMOS 2406 3.6 11:30:19 31° WSW 11:32:08 39° WNW 11:37:26 10° N
Cosmos 1400 Rocket 4.4 11:29:04 10° N 11:32:42 35° ENE 11:36:17 10° SE
Cosmos 292 Rocket 4.5 11:36:15 31° W 11:36:23 31° W 11:40:36 10° SSW
ERS-2 2.2 11:34:17 10° S 11:37:49 51° W 11:40:22 18° NNW
Cosmos 1697 Rocket 2.7 11:35:45 10° NNW 11:41:27 90° WSW 11:47:06 10° SSE
ARGOS Delta rocket 4.2 11:37:23 10° NNE 11:42:50 86° E 11:48:20 10° S
SAR-Lupe-4 3.6 11:39:21 10° SSE 11:42:54 82° ENE 11:46:30 10° N
Abrixas rocket 4.4 11:42:40 12° N 11:43:44 14° NNE 11:45:20 10° NE
Cosmos 1908 3.9 11:43:54 31° W 11:43:56 31° W 11:47:22 10° SSW
SKYMED 2 4.3 11:40:21 10° SSE 11:44:35 56° ENE 11:48:51 10° N
ADEOS Rocket 3.4 11:40:33 10° SSW 11:45:21 30° W 11:50:09 10° NW
SL-19 R/B 3.3 11:43:26 10° N 11:46:13 64° WNW 11:49:06 10° SSW
Cosmos 44 Rocket 3.6 11:43:10 17° NW 11:47:02 51° WSW 11:52:02 10° S
SJ-12 3.9 11:44:12 10° NNE 11:48:20 85° ESE 11:52:25 10° SSW
Cosmos 1689 Rocket 3.0 11:46:00 10° SSE 11:48:51 50° ENE 11:51:43 10° N
Cosmos 1461 3.4 11:46:38 21° WSW 11:49:18 44° NW 11:53:47 10° NNE
SL-14 R/B 3.5 11:48:14 10° SSW 11:52:02 45° W 11:55:54 10° N
ISS -2.3 11:52:01 22° NW 11:52:38 23° NNW 11:55:23 10° NNE
FENGYUN 3A 3.9 11:49:13 10° N 11:54:24 47° WNW 11:59:34 10° SW
USA 290 2.3 11:51:29 10° SW 11:54:35 49° WNW 11:57:44 10° N
